This is the latest recevied weather packets stored in our database for station/object KE6LRO. If no packets are shown the sender has not sent any weather packets the latest 10 day(s).
| Time | Temp. | Humidity | Pressure | Rain* | Wind** | Luminosity | Snow |
|---|---|---|---|---|---|---|---|
| 1788141144 | 57° F | 50% | 767.1 mmHg | 0 in | - | 18 W/m² | - |
| 1788140839 | 57° F | 51% | 767 mmHg | 0 in | - | 21 W/m² | - |
| 1788140534 | 57° F | 50% | 767.1 mmHg | 0 in | - | 23 W/m² | - |
| 1788140230 | 58° F | 50% | 767.2 mmHg | 0 in | - | 26 W/m² | - |
| 1788139929 | 59° F | 48% | 767.1 mmHg | 0 in | - | 29 W/m² | - |
| 1788139624 | 59° F | 47% | 767 mmHg | 0 in | - | 32 W/m² | - |
| 1788139320 | 60° F | 45% | 767 mmHg | 0 in | - | 34 W/m² | - |
| 1788139020 | 60° F | 45% | 766.7 mmHg | 0 in | - | 37 W/m² | - |
| 1788138716 | 61° F | 44% | 766.9 mmHg | 0 in | - | 39 W/m² | - |
| 1788138411 | 62° F | 43% | 766.7 mmHg | 0 in | - | 42 W/m² | - |
| 1788138106 | 65° F | 42% | 766.9 mmHg | 0 in | - | 49 W/m² | - |
| 1788137806 | 65° F | 36% | 767 mmHg | 0 in | - | 78 W/m² | - |
| 1788137501 | 65° F | 35% | 767 mmHg | 0 in | - | 87 W/m² | - |
| 1788137197 | 65° F | 36% | 767 mmHg | 0 in | - | 95 W/m² | - |
| 1788136893 | 66° F | 35% | 767.2 mmHg | 0 in | - | 107 W/m² | - |
| 1788136589 | 65° F | 36% | 767 mmHg | 0 in | - | 117 W/m² | - |
| 1788136284 | 66° F | 35% | 767 mmHg | 0 in | - | 53 W/m² | - |
| 1788135983 | 66° F | 34% | 767.1 mmHg | 0 in | - | 140 W/m² | - |
| 1788135678 | 66° F | 35% | 767.1 mmHg | 0 in | - | 159 W/m² | - |
| 1788135374 | 66° F | 34% | 767 mmHg | 0 in | - | 110 W/m² | - |
| 1788135070 | 67° F | 34% | 767 mmHg | 0 in | - | 104 W/m² | - |
| 1788134766 | 66° F | 34% | 766.7 mmHg | 0 in | - | 203 W/m² | - |
| 1788134465 | 66° F | 34% | 767.1 mmHg | 0 in | - | 211 W/m² | - |
| 1788134164 | 67° F | 34% | 766.9 mmHg | 0 in | - | 230 W/m² | - |
| 1788133859 | 67° F | 34% | 766.9 mmHg | 0 in | - | 240 W/m² | - |
* Rain latest hour (hover to see other rain measurements)
** Current wind speed in m/s (hover to see current wind gust speed)